[[{"header":{"parameterUnit":"m.s-1","parameterCategory":1,"la1":30.2991,"la2":30.254,"lo1":-89.0895,"lo2":-89.0444,"dy":0.0017,"dx":0.0017,"nx":28,"ny":28,"refTime":"2024-10-17T03:00:00:Z","depth":0,"parameterNumber":2,"parameterNumberName":"U-component_of_WINDS"},"data":[0,0,0,0,0,0,0,0,0,0,0,0,0,0,0,0,0,0,0,0,0,0,0,0,0,0,0,0,0,0,0,0,0,0,0,0,0,0,0,0,0,0,0,0,0,0,0,0,0,0,0,0,0,0,0,0,0,0,-6.1169,-6.117,0,-6.1239,-6.124,-6.1241,-6.1136,-6.1132,-6.1129,-6.1125,-6.1196,-6.1201,-6.1206,0,0,0,0,0,0,0,0,0,0,0,0,0,-6.0946,-6.095,-6.1169,-6.117,-6.1171,-6.1239,-6.124,-6.1241,-6.1137,-6.1132,-6.1128,-6.1124,-6.1194,-6.12,-6.1207,0,0,0,0,0,0,0,0,0,0,0,0,0,-6.1032,-6.0952,-6.1169,-6.1127,-6.1124,-6.1239,-6.124,-6.1241,-6.1138,-6.1132,-6.1127,-6.1121,-6.1192,-6.12,-6.1208,-6.1366,0,0,-6.1232,-6.1235,0,0,0,0,0,0,0,0,-6.1027,-6.104,-6.1133,-6.113,-6.1127,-6.1173,-6.1187,-6.1283,-6.1139,-6.1133,-6.1125,-6.1119,-6.1193,-6.12,-6.1225,-6.1369,-6.1372,-6.1233,-6.1237,-6.1241,-6.1243,0,0,0,0,0,0,0,-6.1021,-6.1037,-6.1197,-6.1134,-6.1131,-6.1105,-6.1111,-6.1204,-6.1192,-6.1133,-6.1125,-6.1135,-6.119,-6.1218,-6.1226,-6.1373,-6.1232,-6.1239,-6.1244,-6.1247,-6.1651,-6.1657,0,0,0,0,0,0,-6.1021,-6.1032,-6.1195,-6.1199,-6.1063,-6.1113,-6.112,-6.1164,-6.1191,-6.119,-6.114,-6.113,-6.1207,-6.1217,-6.1228,-6.1416,-6.1241,-6.1248,-6.1253,-6.1645,-6.1653,-6.1659,0,0,0,0,0,0,-6.1016,-6.1036,-6.1192,-6.1114,-6.1132,-6.1123,-6.1173,-6.1168,-6.1196,-6.1196,-6.1194,-6.117,-6.1203,-6.1217,-6.1333,-6.1417,-6.1252,-6.1259,-6.1638,-6.1648,-6.1656,-6.1792,0,0,0,0,0,0,-6.101,-6.1035,-6.1095,-6.1116,-6.1136,-6.1296,-6.1178,-6.1174,-6.121,-6.1198,-6.1224,-6.1223,-6.12,-6.1321,-6.1341,-6.1424,-6.1265,-6.1631,-6.1642,-6.1653,-6.178,-6.1804,-6.1825,0,0,0,0,0,-6.1003,-6.113,-6.1099,-6.1119,-6.1211,-6.1301,-6.1312,-6.1283,-6.1217,-6.1277,-6.1278,-6.1223,-6.1405,-6.1334,-6.1355,-6.1442,-6.1625,-6.1639,-6.1652,-6.1769,-6.1799,-6.1825,0,0,0,0,0,0,-6.1119,-6.1132,-6.1097,-6.1236,-6.1268,-6.1283,-6.1358,-6.1315,-6.1366,-6.1353,-6.1314,-6.1321,-6.1445,-6.1455,-6.1376,-6.1597,-6.1504,-6.1522,-6.1586,-6.1614,-6.1637,-6.1631,-6.1272,0,0,0,0,0,-6.1161,-6.1233,-6.124,-6.1362,-6.138,-6.1367,-6.1404,-6.1379,-6.141,-6.1423,-6.1432,-6.1465,-6.1529,-6.1572,-6.1632,-6.1781,-6.1785,-6.1851,-6.1874,-6.1893,-6.1909,-6.1989,-6.2018,-6.1703,-6.1703,-6.1703,0,0,-6.1249,-6.1265,-6.1312,-6.1386,-6.1408,-6.1483,-6.1379,-6.1462,-6.1517,-6.1436,-6.1545,-6.1554,-6.1587,-6.1721,-6.178,-6.1733,-6.1997,-6.191,-6.1925,-6.1931,-6.2005,-6.2035,-6.2062,-6.1712,-6.1711,-6.1709,0,0,-6.1446,-6.1465,-6.1569,-6.1593,-6.1628,-6.1618,-6.1643,-6.1665,-6.1667,-6.1777,-6.1717,-6.1782,-6.1894,-6.1921,-6.1949,-6.2158,-6.2109,-6.2178,-6.2297,-6.2375,-6.24,-6.2422,-6.2496,-6.2523,-6.2194,-6.2195,-6.2195,0,-6.155,-6.166,-6.1627,-6.1715,-6.1749,-6.168,-6.1784,-6.1809,-6.1862,-6.1887,-6.1834,-6.1973,-6.1991,-6.213,-6.2181,-6.2206,-6.2233,-6.2174,-6.2399,-6.2421,-6.244,-6.2511,-6.2539,-6.2203,-6.2202,-6.2201,-6.22,0,-6.1786,-6.1864,-6.1944,-6.1997,-6.204,-6.2136,-6.2117,-6.2165,-6.2136,-6.2132,-6.2245,-6.2264,-6.2326,-6.2357,-6.233,-6.2492,-6.2462,-6.2405,-6.231,-6.2479,-6.2545,-6.2571,-6.2214,-6.2211,-6.2209,-6.2207,0,0,-6.2058,-6.2092,-6.2122,-6.2145,-6.2179,-6.2238,-6.2331,-6.2392,-6.2434,-6.2473,-6.255,-6.2647,-6.2594,-6.2626,-6.2601,-6.267,-6.2834,-6.2604,-6.2604,-6.2646,-6.3015,-6.3057,-6.3089,-6.2802,-6.2807,-6.2811,-6.3012,0,-6.2255,-6.2415,-6.2389,-6.2544,-6.2616,-6.2551,-6.2632,-6.2662,-6.2661,-6.2721,-6.272,-6.2789,-6.2715,-6.2734,-6.2799,-6.2801,-6.2908,-6.2786,-6.2873,-6.2877,-6.2866,-6.3123,-6.3168,-6.3356,-6.3037,-6.3042,-6.3045,0,-6.2505,-6.2554,-6.2717,-6.274,-6.2769,-6.2842,-6.2896,-6.2955,-6.2987,-6.2982,-6.3019,-6.2981,-6.3074,-6.2979,-6.3106,-6.3023,-6.3058,-6.3064,-6.3071,-6.3077,-6.2971,-6.3136,-6.3416,-6.3444,-6.3085,-6.3081,-6.3079,0,-6.2687,-6.2793,-6.2904,-6.2926,-6.2956,-6.3009,-6.3024,-6.3051,-6.3089,-6.3137,-6.3161,-6.3219,-6.3251,-6.3296,-6.3276,-6.3208,-6.3407,-6.331,-6.3405,-6.3406,-6.3449,-6.3446,-6.3737,-6.3473,-6.3472,-6.3472,-6.3471,0,-6.2909,-6.3011,-6.2986,-6.3055,-6.3168,-6.3136,-6.3249,-6.3255,-6.328,-6.3349,-6.3297,-6.3362,-6.3331,-6.3395,-6.3379,-6.3487,-6.3502,-6.35,-6.3494,-6.3504,-6.3504,-6.3525,-6.3512,-6.3479,-6.3477,-6.3476,-6.3475,0,-6.313,-6.3118,-6.3235,-6.3254,-6.3261,-6.3343,-6.3359,-6.3423,-6.3419,-6.3506,-6.3525,-6.3518,-6.359,-6.3574,-6.3653,-6.3643,-6.3778,-6.3757,-6.3768,-6.3762,-6.3858,-6.3849,-6.4172,-6.4213,-6.3923,-6.3926,-6.3928,0,-6.3272,-6.335,-6.3377,-6.3419,-6.3438,-6.3507,-6.3547,-6.3519,-6.3562,-6.3605,-6.3664,-6.3732,-6.3784,-6.3902,-6.3904,-6.3965,-6.3944,-6.4053,-6.3952,-6.396,-6.3945,-6.394,-6.3948,-6.4073,-6.4076,-6.4079,-6.4081,0,-6.3526,-6.3516,-6.3575,-6.3633,-6.3681,-6.3725,-6.3764,-6.3801,-6.3777,-6.3828,-6.3901,-6.3942,-6.4023,-6.4091,-6.4147,-6.4161,-6.4118,-6.4113,-6.4138,-6.4148,-6.4151,-6.4151,-6.3822,-6.4105,-6.4103,-6.4101,-6.41,-6.4099,-6.3711,-6.3777,-6.3807,-6.3875,-6.3901,-6.3939,-6.4,-6.4004,-6.4064,-6.4128,-6.4108,-6.4192,-6.4222,-6.4293,-6.4315,-6.438,-6.4338,-6.4375,-6.4384,-6.4393,-6.4405,-6.4142,-6.439,-6.4389,-6.4388,-6.4388,-6.4387,0,-6.3962,-6.3978,-6.4041,-6.4097,-6.415,-6.4105,-6.4146,-6.4193,-6.4267,-6.43,-6.4353,-6.4437,-6.4503,-6.4511,-6.4573,-6.4623,-6.4605,-6.464,-6.4636,-6.464,-6.4438,-6.441,-6.4654,-6.4654,-6.4654,-6.4654,-6.4654,-6.4654,-6.4098,-6.4207,-6.4201,-6.4323,-6.4338,-6.442,-6.4447,-6.4482,-6.4507,-6.4604,-6.4658,-6.4663,-6.4686,-6.4749,-6.4808,-6.4808,-6.4833,-6.4877,-6.487,-6.4681,-6.4654,-6.4629,-6.4602,-6.4883,-6.4883,-6.5066,-6.5067,-6.5069]},{"header":{"parameterUnit":"m.s-1","parameterCategory":1,"la1":30.2991,"la2":30.254,"lo1":-89.0895,"lo2":-89.0444,"dy":0.0017,"dx":0.0017,"nx":28,"ny":28,"refTime":"2024-10-17T03:00:00:Z","depth":0,"parameterNumber":3,"parameterNumberName":"V-component_of_WINDS"},"data":[0,0,0,0,0,0,0,0,0,0,0,0,0,0,0,0,0,0,0,0,0,0,0,0,0,0,0,0,0,0,0,0,0,0,0,0,0,0,0,0,0,0,0,0,0,0,0,0,0,0,0,0,0,0,0,0,0,0,-1.6025,-1.6025,0,-1.5966,-1.5965,-1.5965,-1.5922,-1.5922,-1.5921,-1.5921,-1.586,-1.5859,-1.5858,0,0,0,0,0,0,0,0,0,0,0,0,0,-1.6101,-1.6099,-1.6026,-1.6025,-1.6024,-1.5966,-1.5965,-1.5964,-1.5922,-1.5922,-1.5921,-1.5921,-1.5861,-1.5859,-1.5858,0,0,0,0,0,0,0,0,0,0,0,0,0,-1.6057,-1.6099,-1.6026,-1.5996,-1.5993,-1.5966,-1.5965,-1.5964,-1.5922,-1.5922,-1.5921,-1.5921,-1.5861,-1.5859,-1.5857,-1.5856,0,0,-1.5851,-1.5851,0,0,0,0,0,0,0,0,-1.606,-1.6055,-1.6001,-1.5998,-1.5994,-1.5951,-1.5969,-1.5928,-1.5922,-1.5949,-1.5921,-1.5921,-1.5891,-1.5886,-1.5876,-1.5853,-1.585,-1.5851,-1.585,-1.5849,-1.5849,0,0,0,0,0,0,0,-1.6063,-1.6057,-1.6002,-1.6,-1.5996,-1.5985,-1.5978,-1.5961,-1.5924,-1.5947,-1.5943,-1.5937,-1.5889,-1.5878,-1.5875,-1.5849,-1.5851,-1.585,-1.5848,-1.5848,-1.5818,-1.5818,0,0,0,0,0,0,-1.6071,-1.606,-1.6004,-1.6,-1.6026,-1.5984,-1.5977,-1.5965,-1.5924,-1.5917,-1.5938,-1.5935,-1.5882,-1.5877,-1.5872,-1.5865,-1.5849,-1.5847,-1.5846,-1.5818,-1.5818,-1.5819,0,0,0,0,0,0,-1.6072,-1.6066,-1.6006,-1.6029,-1.602,-1.5983,-1.5971,-1.5965,-1.5954,-1.5917,-1.591,-1.5934,-1.5881,-1.5875,-1.5859,-1.5863,-1.5846,-1.5845,-1.5817,-1.5818,-1.5818,-1.5853,0,0,0,0,0,0,-1.6075,-1.6067,-1.6067,-1.6029,-1.6019,-1.5995,-1.5971,-1.5964,-1.5951,-1.5947,-1.5911,-1.5905,-1.588,-1.5863,-1.5857,-1.586,-1.5843,-1.5817,-1.5817,-1.5818,-1.5852,-1.5855,-1.5858,0,0,0,0,0,-1.6078,-1.6079,-1.6067,-1.606,-1.6018,-1.5995,-1.599,-1.5962,-1.5951,-1.595,-1.5925,-1.5906,-1.5863,-1.5861,-1.5855,-1.5857,-1.5816,-1.5817,-1.5818,-1.585,-1.5854,-1.5858,0,0,0,0,0,0,-1.6119,-1.6074,-1.606,-1.605,-1.6026,-1.5988,-1.5986,-1.5967,-1.5947,-1.5944,-1.591,-1.5902,-1.589,-1.5872,-1.587,-1.5852,-1.5837,-1.5837,-1.5864,-1.5867,-1.5871,-1.5875,-1.5842,0,0,0,0,0,-1.6127,-1.6112,-1.6074,-1.6068,-1.6058,-1.6024,-1.6013,-1.5993,-1.5968,-1.5958,-1.5932,-1.5908,-1.5889,-1.5877,-1.5858,-1.5849,-1.5839,-1.5847,-1.585,-1.5853,-1.5853,-1.5844,-1.5847,-1.5821,-1.5821,-1.5821,0,0,-1.6143,-1.6116,-1.611,-1.6076,-1.6056,-1.6041,-1.6016,-1.6002,-1.599,-1.5956,-1.5939,-1.5919,-1.589,-1.5877,-1.587,-1.5862,-1.5858,-1.5854,-1.5856,-1.5855,-1.5845,-1.5848,-1.585,-1.5822,-1.5822,-1.5822,0,0,-1.6164,-1.6144,-1.6136,-1.6116,-1.6085,-1.6062,-1.606,-1.6024,-1.601,-1.5992,-1.5965,-1.595,-1.5919,-1.5898,-1.5884,-1.5895,-1.5875,-1.5889,-1.5906,-1.5898,-1.59,-1.5901,-1.5903,-1.5905,-1.589,-1.589,-1.589,0,-1.6188,-1.6164,-1.6134,-1.612,-1.6106,-1.6073,-1.6064,-1.6046,-1.6011,-1.6001,-1.5992,-1.595,-1.5928,-1.5909,-1.5911,-1.5901,-1.5897,-1.5893,-1.5902,-1.5903,-1.5904,-1.5906,-1.5907,-1.5892,-1.5891,-1.5891,-1.5891,0,-1.6194,-1.6178,-1.6175,-1.6141,-1.6126,-1.6115,-1.6082,-1.607,-1.6051,-1.6029,-1.601,-1.5982,-1.5956,-1.595,-1.5932,-1.5927,-1.5922,-1.5908,-1.5893,-1.5909,-1.5909,-1.591,-1.5894,-1.5893,-1.5893,-1.5892,0,0,-1.6241,-1.6188,-1.6188,-1.6171,-1.6134,-1.612,-1.6107,-1.608,-1.607,-1.6046,-1.6033,-1.6006,-1.5992,-1.5975,-1.5954,-1.5947,-1.5955,-1.5933,-1.5932,-1.5937,-1.5946,-1.5956,-1.5958,-1.5942,-1.5942,-1.5942,-1.5948,0,-1.6255,-1.623,-1.6201,-1.6185,-1.6168,-1.6136,-1.6124,-1.61,-1.6078,-1.606,-1.6036,-1.6017,-1.6001,-1.599,-1.5982,-1.5956,-1.5956,-1.5955,-1.5928,-1.5928,-1.5936,-1.5958,-1.5969,-1.5976,-1.5948,-1.5948,-1.5948,0,-1.6269,-1.6246,-1.6228,-1.619,-1.6182,-1.6172,-1.6144,-1.6128,-1.6098,-1.6083,-1.6063,-1.604,-1.6023,-1.601,-1.5985,-1.5985,-1.5972,-1.5957,-1.5957,-1.5952,-1.5939,-1.5953,-1.5978,-1.5979,-1.5949,-1.5949,-1.5949,0,-1.6302,-1.6267,-1.6251,-1.6238,-1.6194,-1.6187,-1.6168,-1.6138,-1.6123,-1.6099,-1.6088,-1.6062,-1.6048,-1.6028,-1.5997,-1.5991,-1.5975,-1.596,-1.596,-1.5961,-1.5958,-1.5958,-1.598,-1.5951,-1.5951,-1.5951,-1.5951,0,-1.6321,-1.6311,-1.6265,-1.6255,-1.6242,-1.6209,-1.6197,-1.6175,-1.6148,-1.6133,-1.6104,-1.609,-1.6051,-1.6032,-1.6008,-1.599,-1.5984,-1.597,-1.5964,-1.5972,-1.5974,-1.5963,-1.5961,-1.5952,-1.5952,-1.5952,-1.5952,0,-1.6356,-1.6325,-1.6305,-1.6265,-1.6254,-1.6246,-1.6211,-1.62,-1.6176,-1.6156,-1.615,-1.6112,-1.6088,-1.6056,-1.6022,-1.6006,-1.599,-1.5981,-1.6,-1.5996,-1.5998,-1.5997,-1.6012,-1.6011,-1.5985,-1.5985,-1.5985,0,-1.6369,-1.6361,-1.6319,-1.6306,-1.6288,-1.6269,-1.6253,-1.6219,-1.6203,-1.6168,-1.616,-1.6134,-1.6111,-1.6073,-1.6043,-1.6016,-1.6005,-1.6012,-1.6001,-1.6009,-1.6003,-1.6004,-1.6002,-1.6014,-1.6015,-1.6015,-1.6016,0,-1.6396,-1.638,-1.6359,-1.6332,-1.6313,-1.629,-1.6266,-1.6257,-1.6218,-1.6202,-1.6176,-1.6158,-1.6123,-1.6096,-1.6065,-1.6045,-1.6023,-1.6019,-1.6018,-1.6026,-1.6037,-1.6029,-1.6006,-1.6019,-1.6019,-1.6018,-1.6018,-1.6018,-1.6419,-1.6409,-1.6378,-1.6354,-1.6332,-1.6309,-1.6296,-1.6269,-1.6248,-1.6216,-1.6197,-1.6172,-1.6141,-1.6097,-1.6077,-1.6056,-1.6048,-1.6046,-1.6045,-1.6045,-1.6047,-1.6041,-1.605,-1.605,-1.605,-1.605,-1.605,0,-1.6443,-1.642,-1.6399,-1.6365,-1.6346,-1.6328,-1.6299,-1.6284,-1.6262,-1.6235,-1.6212,-1.6182,-1.6156,-1.6122,-1.6093,-1.6082,-1.6072,-1.6076,-1.6076,-1.6071,-1.6057,-1.6061,-1.6085,-1.6085,-1.6085,-1.6085,-1.6085,-1.6085,-1.6453,-1.6434,-1.6415,-1.6384,-1.6362,-1.6337,-1.6322,-1.63,-1.6278,-1.6245,-1.6223,-1.6201,-1.6171,-1.6139,-1.6113,-1.6103,-1.6094,-1.6101,-1.6088,-1.6076,-1.6072,-1.6069,-1.6072,-1.6099,-1.6099,-1.6104,-1.6104,-1.6104]}]]